Rionegro, Colombia

12:51 PM -05 on November 24, 2017 (GMT -0500)
Jose Maria Cordova

Weather History for SKRG - February, 2013

Change the Weather History Date:

Wednesday, February 13, 2013

  Actual Average Record
Temperature  
Mean Temperature 61 °F -  
Max Temperature 70 °F 69 °F 75 °F (2001)
Min Temperature 52 °F 54 °F 35 °F (1997)
Degree Days  
Heating Degree Days 4    
Growing Degree Days 11 (Base 50)    
Moisture  
Dew Point 54 °F    
Average Humidity 85    
Maximum Humidity 100    
Minimum Humidity 52    
Precipitation  
Precipitation 0.01 in - - ()
Sea Level Pressure  
Sea Level Pressure 30.25 in    
Wind  
Wind Speed 2 mph ()    
Max Wind Speed 13 mph    
Max Gust Speed -    
Visibility 4.3 miles    
Events Fog    
Averages and records for this station are not official NWS values.
T = Trace of Precipitation, MM = Missing Value Source: Averaged Metar Reports

Daily Weather History Graph

Daily Weather History Graph

Search for Another Location

Airport or City:

Trip Planner

Search our weather history database for the weather conditions in past years. The results will help you decide how hot, cold, wet, or windy it might be!

Date:

Astronomy

Feb. 13, 2013 Rise Set
Actual Time 6:18 AM -05 6:13 PM -05
Civil Twilight 5:56 AM -05 6:34 PM -05
Nautical Twilight 5:32 AM -05 6:59 PM -05
Astronomical Twilight 5:07 AM -05 7:24 PM -05
Moon 8:42 AM -05 (2/13) 9:11 PM -05 (2/13)
Length of Visible Light 12h 37m
Length of Day
11h 55m
Waxing Crescent, 13% of the Moon is Illuminated
Feb 13
Waxing Crescent
Feb 17
First Quarter
Feb 25
Full
Mar 4
Last Quarter
Mar 11
New

Hourly Weather History & Observations

Time (-05) Temp. Dew Point Humidity Pressure Visibility Wind Dir Wind Speed Gust Speed Precip Events Conditions
12:00 AM 57.2 °F 57.2 °F 100% 30.30 in 5.0 mi Calm Calm - N/A   Scattered Clouds
1:00 AM 57 °F 56 °F 95%  in 6 mi Calm Calm - - Fog Patches of Fog
1:00 AM 57.2 °F 55.4 °F 94% 30.29 in 3.1 mi Calm Calm - N/A Fog Patches of Fog
2:00 AM 53.6 °F 53.6 °F 100% 30.27 in 1.2 mi SSE 3.5 mph - N/A Fog Patches of Fog
3:00 AM 55.4 °F 55.4 °F 100% 30.25 in 0.6 mi North 4.6 mph - N/A Fog Patches of Fog
4:00 AM 54 °F 53 °F 97%  in 1 mi Calm Calm - - Fog Heavy Fog
4:00 AM 53.6 °F 53.6 °F 100% 30.24 in 0.6 mi Calm Calm - N/A Fog Fog
4:30 AM 53.6 °F 53.6 °F 100% 30.25 in 0.4 mi Calm Calm - N/A Fog Fog
5:00 AM 53.6 °F 53.6 °F 100% 30.25 in 0.4 mi Calm Calm - N/A Fog Fog
5:30 AM 53.6 °F 53.6 °F 100% 30.26 in 0.4 mi Calm Calm - N/A Fog Fog
6:00 AM 53.6 °F 53.6 °F 100% 30.26 in 0.4 mi Calm Calm - N/A Fog Fog
7:00 AM 54 °F 53 °F 95%  in 1 mi Calm Calm - - Fog Heavy Fog
7:00 AM 53.6 °F 53.6 °F 100% 30.26 in 0.6 mi Calm Calm - N/A Fog Fog
7:30 AM 53.6 °F 53.6 °F 100% 30.27 in 0.6 mi Calm Calm - N/A Fog Patches of Fog
8:00 AM 53.6 °F 53.6 °F 100% 30.28 in 0.6 mi Variable 2.3 mph - N/A Fog Patches of Fog
8:30 AM 55.4 °F 53.6 °F 94% 30.28 in 1.2 mi Variable 2.3 mph - N/A Fog Patches of Fog
9:00 AM 57.2 °F 53.6 °F 88% 30.29 in 1.9 mi NNE 4.6 mph - N/A Fog Patches of Fog
10:00 AM 60 °F 53 °F 72%  in 4 mi ENE 6.7 mph - -   Haze
10:00 AM 60.8 °F 53.6 °F 77% 30.29 in 4.3 mi ENE 5.8 mph - N/A   Scattered Clouds
11:00 AM 62.6 °F 51.8 °F 68% 30.29 in 6.2 mi ENE 4.6 mph - N/A   Scattered Clouds
12:00 PM 66.2 °F 51.8 °F 60% 30.26 in 6.2 mi NE 6.9 mph - N/A   Mostly Cloudy
1:00 PM 66 °F 53 °F 52%  in 12 mi East 2.2 mph - -   Haze
1:00 PM 66.2 °F 51.8 °F 60% 30.24 in 6.2 mi Variable 2.3 mph - N/A   Mostly Cloudy
2:00 PM 68.0 °F 51.8 °F 56% 30.21 in 6.2 mi NNE 6.9 mph - N/A   Mostly Cloudy
3:00 PM 68.0 °F 51.8 °F 56% 30.18 in 6.2 mi NE 5.8 mph - N/A   Scattered Clouds
4:00 PM 68 °F 55 °F 53%  in 12 mi ENE 11.2 mph - -   Haze
4:00 PM 68.0 °F 55.4 °F 64% 30.17 in 6.2 mi ENE 11.5 mph - N/A   Mostly Cloudy
5:00 PM 66.2 °F 55.4 °F 68% 30.16 in 6.2 mi ENE 12.7 mph - N/A   Mostly Cloudy
6:00 PM 64.4 °F 57.2 °F 77% 30.17 in 6.2 mi ENE 10.4 mph - N/A   Mostly Cloudy
7:00 PM 61 °F 57 °F 82%  in 12 mi NNE 4.5 mph - -   Haze
7:00 PM 60.8 °F 57.2 °F 88% 30.21 in 6.2 mi NNE 4.6 mph - N/A   Scattered Clouds
8:00 PM 60.8 °F 57.2 °F 88% 30.24 in 6.2 mi NNE 4.6 mph - N/A   Mostly Cloudy
9:00 PM 59.0 °F 57.2 °F 94% 30.27 in 6.2 mi North 4.6 mph - N/A   Mostly Cloudy
10:00 PM 60 °F 56 °F 84%  in 6 mi Calm Calm - -   Haze
10:00 PM 59.0 °F 57.2 °F 94% 30.28 in 6.2 mi Calm Calm - N/A   Scattered Clouds
11:00 PM 59.0 °F 57.2 °F 94% 30.29 in 5.6 mi Calm Calm - N/A   Scattered Clouds